Wetbulb
68.48 67.97 67.95 68.42 67.55 66.90 67.09 67.41 67.93 67.81 67.52 66.60 65.98 66.00 66.22 65.45 65.26 65.63 64.75 64.61 64.18 63.54
67.62 67.89 67.93 67.99 68.13 67.24 67.55 66.75 66.80 66.82 66.00 65.52 65.59 65.98 66.22 65.40 65.54 65.62 64.94 64.77 64.86 63.91
67.18 67.26 67.11 67.43 66.98 67.06 66.57 66.34 66.00 65.64 65.52 65.19 65.52 65.93 66.67 67.00 66.44 65.54 64.88 64.61 64.63 64.43
66.10 66.46 66.89 66.65 66.39 66.10 66.14 65.64 65.09 64.84 64.63 64.96 65.33 66.04 66.51 66.25 65.57 63.75 65.14 65.00 64.52 64.33
65.86 66.05 65.78 65.62 65.64 65.36 64.64 65.10 64.64 64.51 64.41 64.32 64.53 65.38 64.85 64.47 63.96 62.84 63.91 64.16 64.07 63.89
65.04 65.40 65.36 65.03 64.82 64.53 64.28 64.55 64.83 64.62 63.88 64.60 65.06 64.97 64.88 61.77 62.08 62.82 64.58 64.66 64.42 64.24
64.64 64.69 64.44 64.21 64.28 64.36 64.52 64.23 64.05 64.63 64.91 65.24 65.41 65.30 64.18 63.43 63.28 62.22 64.43 64.96 65.14 64.83
64.38 64.54 64.01 63.80 64.18 64.26 64.08 63.97 65.47 65.31 64.77 64.73 64.52 61.27 62.34 64.34 63.08 61.51 63.49 64.13 65.08 65.37
63.83 63.58 63.80 63.78 63.52 63.97 63.56 64.75 64.61 64.04 63.76 63.78 62.22 47.34 50.49 58.43 63.08 62.62 62.07 61.56 62.40 62.53
64.07 63.18 62.59 63.30 63.06 63.27 64.04 64.37 62.64 64.14 62.88 62.75 63.01 45.96 47.95 52.48 62.53 61.83 61.44 61.14 61.09 60.50
63.50 62.97 63.06 63.14 63.21 63.75 64.71 62.74 62.75 63.38 62.47 63.32 59.41 47.59 47.95 52.12 62.79 61.47 60.62 60.53 61.10 60.44
63.19 62.81 62.49 62.41 63.56 64.57 62.97 62.05 62.86 63.01 62.25 63.27 60.59 47.41 47.77 56.28 60.96 60.74 59.71 59.56 59.12 58.94
63.37 63.21 62.94 63.43 63.65 64.65 65.36 62.55 62.52 61.95 62.40 56.12 60.79 46.14 47.41 57.17 61.24 59.83 59.39 59.33 58.30 50.59
64.13 63.74 63.83 64.11 64.14 64.28 64.28 63.39 62.89 61.80 62.72 61.82 59.26 56.97 46.14 50.85 61.27 60.21 58.42 57.23 56.51 53.52
MSLP
1000.12 1000.65 1001.27 1001.73 1002.32 1003.01 1003.64 1004.40 1005.49 1006.05 1006.65 1007.26 1007.72 1008.23 1008.66 1008.79 1008.98 1009.33 1009.47 1009.74 1009.97 1009.77
1000.46 1000.99 1001.45 1002.18 1002.79 1003.24 1003.97 1004.87 1005.60 1006.24 1006.82 1007.26 1007.73 1008.08 1008.29 1008.38 1008.69 1008.98 1009.31 1009.43 1009.59 1009.64
1000.92 1001.41 1001.98 1002.48 1003.00 1003.69 1004.55 1005.18 1005.83 1006.39 1006.87 1007.28 1007.55 1007.76 1007.98 1008.14 1008.36 1008.70 1008.87 1008.95 1009.17 1009.41
1001.47 1001.92 1002.49 1003.03 1003.68 1004.30 1004.95 1005.50 1006.00 1006.47 1006.88 1007.15 1007.34 1007.58 1007.68 1007.82 1007.97 1008.26 1008.33 1008.55 1008.74 1008.95
1002.08 1002.58 1003.10 1003.66 1004.25 1004.81 1005.29 1005.80 1006.18 1006.56 1006.79 1006.89 1007.10 1007.31 1007.44 1007.51 1007.79 1007.97 1007.85 1008.02 1008.36 1008.53
1002.63 1003.05 1003.54 1004.04 1004.62 1005.04 1005.51 1005.93 1006.20 1006.38 1006.53 1006.66 1006.89 1007.09 1007.30 1007.68 1007.79 1007.67 1007.48 1007.67 1008.02 1008.26
1002.98 1003.44 1003.92 1004.40 1004.85 1005.27 1005.57 1005.88 1006.10 1006.35 1006.51 1006.77 1006.99 1007.09 1007.33 1007.44 1007.54 1007.58 1007.43 1007.67 1007.84 1008.10
1003.43 1003.80 1004.18 1004.61 1005.04 1005.40 1005.67 1005.95 1006.12 1006.47 1006.72 1006.93 1007.09 1007.53 1007.50 1007.25 1007.45 1007.60 1007.54 1007.71 1007.74 1008.06
1003.62 1004.11 1004.49 1004.82 1005.16 1005.50 1005.84 1006.07 1006.40 1006.71 1006.79 1007.03 1007.36 1008.00 1007.77 1007.58 1007.56 1007.62 1007.71 1007.90 1008.07 1008.56
1003.73 1004.19 1004.72 1004.98 1005.29 1005.68 1005.99 1006.36 1006.82 1006.83 1007.00 1007.23 1007.58 1008.06 1007.84 1007.68 1007.71 1007.83 1008.03 1008.23 1008.50 1008.88
1003.66 1004.20 1004.73 1005.11 1005.42 1005.88 1006.15 1006.68 1006.99 1006.96 1007.20 1007.43 1007.99 1008.17 1007.98 1007.95 1007.97 1008.16 1008.41 1008.64 1008.80 1009.17
1003.66 1004.19 1004.74 1005.13 1005.54 1005.85 1006.35 1006.87 1007.09 1007.06 1007.29 1007.58 1008.08 1008.36 1008.29 1008.22 1008.27 1008.51 1008.79 1009.07 1009.40 1009.59
1003.69 1004.20 1004.69 1005.13 1005.59 1005.90 1006.15 1006.84 1007.06 1007.28 1007.62 1008.16 1008.25 1008.58 1008.65 1008.59 1008.66 1008.87 1009.18 1009.50 1009.88 1010.13
1003.84 1004.32 1004.77 1005.28 1005.67 1005.95 1006.20 1006.83 1007.15 1007.48 1007.78 1008.30 1008.55 1008.83 1008.92 1008.92 1008.96 1009.16 1009.51 1009.96 1010.44 1010.97
Wind_Speed
11 8 9 12 11 9 9 9 10 9 8 8 8 7 7 5 5 5 5 7 6 4
10 12 11 11 10 9 10 9 9 9 8 7 7 7 6 5 6 5 6 6 6 5
11 11 11 10 11 11 10 9 9 8 7 7 7 6 7 5 6 7 6 5 6 6
11 11 11 11 11 10 9 9 9 8 7 7 6 6 6 6 6 7 6 5 6 7
13 12 12 11 10 10 10 9 9 8 7 6 6 6 6 6 5 6 6 6 6 7
12 11 11 10 10 10 10 9 7 6 4 5 3 4 4 3 4 7 7 6 7 7
10 10 10 10 10 9 9 8 6 4 5 3 2 3 2 4 4 3 5 5 7 7
10 10 10 10 9 8 7 6 6 6 5 4 4 3 3 4 4 4 4 4 5 6
10 10 9 9 8 8 7 6 7 5 5 5 3 3 2 2 4 5 5 5 7 8
9 10 8 9 8 7 6 8 6 5 5 4 4 4 2 2 4 4 6 8 9 8
9 10 8 8 8 7 5 6 5 5 5 4 4 3 3 4 6 6 6 6 8 10
10 10 8 8 7 6 6 5 5 5 4 5 4 3 5 4 4 7 7 7 7 8
9 9 9 8 7 5 6 7 5 6 4 6 4 4 3 5 5 6 6 6 7 10
8 8 7 7 5 6 6 7 5 5 4 7 4 3 2 5 6 6 6 5 6 5
Wind_Direction
139 139 140 146 140 136 136 134 141 142 143 150 159 162 174 183 192 195 208 215 218 225
131 136 128 126 131 127 121 126 131 140 150 151 163 176 178 197 200 203 216 216 212 221
125 124 121 119 115 118 121 131 139 140 152 163 179 190 200 199 203 206 212 210 206 211
118 115 117 118 120 121 127 136 140 150 161 178 184 201 217 227 220 225 210 200 203 210
114 118 120 125 126 132 132 138 147 157 168 180 203 213 229 240 214 236 218 202 199 211
120 123 123 125 126 129 135 142 153 158 177 168 151 192 216 199 207 227 221 206 203 206
121 123 126 128 130 137 143 147 149 147 141 130 124 62 157 209 176 201 204 208 206 190
123 127 132 134 137 136 140 138 133 128 125 93 83 56 352 105 143 165 184 208 187 184
131 137 139 134 138 144 141 141 123 131 104 95 81 337 285 135 152 186 171 157 139 121
142 145 144 140 144 145 148 126 137 128 103 83 43 3 280 142 127 145 133 132 126 123
149 144 148 155 152 146 139 140 147 123 102 82 46 46 117 123 121 102 110 109 127 127
150 148 153 160 153 140 136 136 153 126 106 85 80 66 136 121 97 116 103 102 111 124
152 154 166 158 150 137 145 142 147 111 87 77 91 56 141 129 114 105 104 100 105 97
150 159 148 139 155 153 147 131 134 112 102 84 89 94 130 127 121 119 110 110 107 111